QPF
0.00 0.00 0.00 0.00 0.00 0.00 0.00 0.00 0.00 0.00 0.00 0.00 0.00 0.00 0.00 0.01 0.00 0.00 0.00 0.00 0.00 0.01 0.01 0.02 0.02 0.01 0.01 0.01 0.02 0.01 0.01 0.01 0.00 0.00 0.01 0.02 0.04 0.06 0.09 0.14 0.12 0.41
0.00 0.00 0.00 0.00 0.00 0.00 0.00 0.00 0.00 0.00 0.00 0.00 0.00 0.00 0.00 0.00 0.00 0.00 0.00 0.00 0.00 0.00 0.01 0.01 0.02 0.02 0.01 0.02 0.01 0.00 0.04 0.02 0.02 0.01 0.01 0.01 0.03 0.03 0.09 0.06 0.24 0.40
0.00 0.00 0.00 0.00 0.00 0.00 0.00 0.00 0.00 0.00 0.00 0.00 0.00 0.00 0.00 0.00 0.00 0.00 0.00 0.00 0.00 0.01 0.01 0.01 0.01 0.01 0.02 0.02 0.02 0.01 0.02 0.03 0.06 0.01 0.01 0.01 0.02 0.03 0.02 0.03 0.02 0.03
0.00 0.00 0.00 0.00 0.00 0.00 0.00 0.00 0.00 0.00 0.00 0.00 0.00 0.00 0.00 0.00 0.00 0.00 0.00 0.00 0.00 0.01 0.02 0.01 0.02 0.02 0.01 0.01 0.01 0.03 0.03 0.03 0.02 0.01 0.01 0.00 0.02 0.06 0.01 0.00 0.01 0.01
0.00 0.00 0.00 0.00 0.00 0.00 0.00 0.00 0.00 0.00 0.00 0.00 0.00 0.00 0.00 0.00 0.00 0.00 0.00 0.00 0.00 0.00 0.00 0.01 0.01 0.01 0.01 0.01 0.01 0.02 0.01 0.01 0.00 0.00 0.00 0.01 0.00 0.00 0.00 0.00 0.00 0.01
0.00 0.00 0.00 0.00 0.00 0.00 0.00 0.00 0.00 0.00 0.00 0.00 0.00 0.00 0.00 0.00 0.00 0.00 0.00 0.00 0.00 0.00 0.00 0.00 0.00 0.01 0.01 0.01 0.02 0.03 0.02 0.01 0.00 0.00 0.01 0.00 0.01 0.00 0.01 0.01 0.00 0.01
0.00 0.00 0.00 0.00 0.00 0.00 0.00 0.00 0.00 0.00 0.00 0.00 0.00 0.00 0.00 0.00 0.00 0.00 0.00 0.00 0.00 0.00 0.01 0.01 0.01 0.01 0.01 0.01 0.02 0.01 0.01 0.01 0.01 0.01 0.01 0.01 0.00 0.00 0.00 0.00 0.00 0.00
0.00 0.00 0.00 0.00 0.00 0.00 0.00 0.00 0.00 0.00 0.00 0.00 0.00 0.00 0.00 0.00 0.00 0.00 0.00 0.00 0.00 0.00 0.01 0.01 0.01 0.01 0.01 0.01 0.01 0.01 0.00 0.00 0.00 0.00 0.00 0.00 0.00 0.01 0.00 0.01 0.00 0.00
0.00 0.00 0.00 0.00 0.00 0.00 0.00 0.00 0.00 0.00 0.00 0.00 0.00 0.00 0.00 0.00 0.00 0.00 0.00 0.00 0.00 0.00 0.00 0.00 0.01 0.01 0.01 0.00 0.00 0.00 0.00 0.00 0.00 0.00 0.00 0.00 0.00 0.00 0.00 0.01 0.02 0.02
0.00 0.00 0.00 0.00 0.00 0.00 0.00 0.00 0.00 0.00 0.00 0.00 0.00 0.00 0.00 0.00 0.00 0.00 0.00 0.00 0.01 0.00 0.00 0.00 0.00 0.01 0.00 0.00 0.00 0.00 0.00 0.00 0.00 0.00 0.00 0.00 0.00 0.00 0.00 0.00 0.00 0.00
0.00 0.00 0.00 0.00 0.00 0.00 0.00 0.00 0.00 0.00 0.00 0.00 0.00 0.00 0.00 0.00 0.00 0.00 0.00 0.00 0.00 0.00 0.00 0.00 0.00 0.00 0.00 0.00 0.00 0.00 0.00 0.00 0.00 0.00 0.00 0.00 0.00 0.00 0.00 0.00 0.00 0.00
0.00 0.00 0.00 0.00 0.00 0.00 0.00 0.00 0.00 0.00 0.00 0.00 0.00 0.00 0.00 0.00 0.00 0.00 0.00 0.00 0.00 0.00 0.00 0.00 0.00 0.00 0.00 0.00 0.00 0.00 0.00 0.00 0.00 0.00 0.00 0.00 0.00 0.00 0.00 0.00 0.00 0.00
0.00 0.00 0.00 0.00 0.00 0.00 0.00 0.00 0.00 0.00 0.00 0.00 0.00 0.00 0.00 0.00 0.00 0.00 0.00 0.00 0.00 0.00 0.00 0.00 0.00 0.00 0.00 0.00 0.00 0.00 0.00 0.00 0.00 0.00 0.00 0.00 0.00 0.00 0.00 0.00 0.00 0.00
0.00 0.00 0.00 0.00 0.00 0.00 0.00 0.00 0.00 0.00 0.00 0.00 0.00 0.00 0.00 0.00 0.00 0.00 0.00 0.00 0.00 0.00 0.00 0.00 0.00 0.00 0.00 0.00 0.00 0.00 0.00 0.00 0.00 0.00 0.00 0.00 0.00 0.00 0.00 0.00 0.00 0.00
0.05 0.00 0.00 0.00 0.00 0.00 0.00 0.00 0.00 0.00 0.00 0.00 0.00 0.00 0.00 0.00 0.00 0.00 0.00 0.00 0.00 0.00 0.00 0.00 0.00 0.00 0.00 0.00 0.00 0.00 0.00 0.00 0.00 0.00 0.00 0.00 0.00 0.00 0.00 0.00 0.00 0.00
0.01 0.01 0.00 0.02 0.02 0.06 0.13 0.10 0.04 0.01 0.00 0.00 0.00 0.00 0.00 0.00 0.00 0.00 0.00 0.00 0.00 0.00 0.00 0.00 0.00 0.00 0.00 0.00 0.00 0.00 0.00 0.00 0.00 0.00 0.00 0.00 0.00 0.00 0.00 0.00 0.00 0.00
0.04 0.01 0.02 0.02 0.11 0.03 0.04 0.07 0.09 0.02 0.00 0.00 0.00 0.00 0.00 0.00 0.00 0.00 0.00 0.00 0.00 0.00 0.00 0.00 0.00 0.00 0.00 0.00 0.00 0.00 0.00 0.00 0.00 0.00 0.00 0.00 0.00 0.00 0.00 0.00 0.00 0.00
0.03 0.02 0.05 0.12 0.02 0.02 0.01 0.00 0.01 0.02 0.02 0.00 0.00 0.00 0.00 0.00 0.00 0.00 0.00 0.00 0.00 0.00 0.00 0.00 0.00 0.00 0.00 0.00 0.00 0.00 0.00 0.00 0.00 0.00 0.00 0.00 0.00 0.00 0.00 0.00 0.00 0.00
0.11 0.15 0.12 0.02 0.02 0.01 0.00 0.00 0.00 0.00 0.00 0.00 0.01 0.01 0.00 0.00 0.00 0.00 0.00 0.00 0.00 0.00 0.00 0.00 0.00 0.00 0.00 0.00 0.00 0.00 0.00 0.00 0.00 0.00 0.00 0.00 0.00 0.00 0.00 0.00 0.00 0.00
0.19 0.24 0.13 0.26 0.10 0.04 0.00 0.00 0.00 0.00 0.00 0.00 0.00 0.00 0.00 0.00 0.00 0.00 0.00 0.00 0.00 0.00 0.00 0.00 0.00 0.00 0.00 0.00 0.00 0.00 0.00 0.00 0.00 0.00 0.00 0.00 0.00 0.00 0.00 0.00 0.00 0.00
0.13 0.16 0.10 0.02 0.02 0.00 0.00 0.00 0.01 0.03 0.00 0.00 0.00 0.00 0.00 0.00 0.00 0.00 0.00 0.00 0.00 0.00 0.00 0.00 0.00 0.00 0.00 0.00 0.00 0.00 0.00 0.00 0.00 0.00 0.00 0.00 0.00 0.00 0.00 0.00 0.00 0.00
0.08 0.09 0.07 0.00 0.00 0.00 0.01 0.00 0.01 0.00 0.03 0.00 0.00 0.00 0.00 0.00 0.00 0.00 0.00 0.00 0.00 0.00 0.00 0.00 0.00 0.00 0.00 0.00 0.00 0.00 0.00 0.00 0.00 0.00 0.00 0.00 0.00 0.00 0.00 0.00 0.00 0.00
0.11 0.02 0.00 0.06 0.01 0.00 0.01 0.02 0.00 0.00 0.00 0.00 0.00 0.00 0.00 0.00 0.00 0.00 0.00 0.00 0.00 0.00 0.00 0.00 0.00 0.00 0.00 0.00 0.00 0.00 0.00 0.00 0.00 0.00 0.00 0.00 0.00 0.00 0.00 0.00 0.00 0.00
0.13 0.08 0.02 0.04 0.01 0.00 0.03 0.00 0.00 0.00 0.02 0.00 0.01 0.00 0.00 0.00 0.00 0.00 0.00 0.00 0.00 0.00 0.00 0.00 0.00 0.00 0.00 0.00 0.00 0.00 0.00 0.00 0.00 0.00 0.00 0.00 0.00 0.00 0.00 0.00 0.00 0.00
0.07 0.26 0.19 0.08 0.10 0.02 0.01 0.01 0.01 0.25 0.13 0.05 0.03 0.06 0.01 0.01 0.01 0.01 0.01 0.03 0.00 0.00 0.00 0.00 0.01 0.00 0.00 0.00 0.00 0.00 0.00 0.00 0.00 0.00 0.00 0.00 0.00 0.00 0.00 0.00 0.00 0.00
0.10 0.03 0.08 0.10 0.29 0.00 0.01 0.10 0.11 0.19 0.08 0.30 0.29 0.09 0.05 0.04 0.10 0.15 0.07 0.27 0.22 0.05 0.01 0.00 0.00 0.00 0.00 0.00 0.00 0.00 0.00 0.00 0.00 0.00 0.00 0.00 0.00 0.00 0.00 0.00 0.00 0.00
MSLP
1016.15 1016.31 1016.59 1016.79 1016.87 1017.03 1017.27 1017.43 1017.59 1017.83 1017.91 1017.99 1018.15 1018.31 1018.47 1018.63 1018.67 1018.79 1018.87 1018.91 1019.03 1019.11 1019.07 1019.15 1019.27 1019.43 1019.51 1019.63 1019.87 1019.79 1020.19 1020.43 1020.43 1020.39 1020.63 1020.83 1020.99 1021.23 1021.55 1021.87 1022.47 1022.27
1016.19 1016.35 1016.55 1016.71 1016.91 1017.11 1017.35 1017.51 1017.75 1017.91 1018.11 1018.15 1018.15 1018.31 1018.55 1018.75 1018.87 1018.87 1018.99 1018.99 1019.07 1019.07 1019.07 1019.15 1019.27 1019.39 1019.47 1019.59 1019.83 1019.87 1020.15 1020.35 1020.51 1020.23 1020.51 1020.83 1020.87 1021.19 1021.51 1021.71 1022.11 1022.47
1016.19 1016.43 1016.63 1016.91 1017.15 1017.39 1017.51 1017.67 1017.87 1018.03 1018.23 1018.39 1018.51 1018.59 1018.83 1018.91 1019.03 1019.03 1019.03 1018.99 1018.95 1019.07 1019.23 1019.23 1019.31 1019.35 1019.43 1019.51 1019.63 1019.83 1020.19 1020.43 1020.63 1020.27 1020.35 1020.43 1020.87 1021.03 1021.27 1021.19 1021.35 1021.43
1016.19 1016.39 1016.63 1016.91 1017.15 1017.43 1017.59 1017.87 1018.11 1018.27 1018.39 1018.63 1018.71 1018.75 1018.91 1019.07 1019.11 1019.27 1019.27 1019.23 1019.19 1019.23 1019.27 1019.27 1019.35 1019.39 1019.39 1019.43 1019.63 1019.67 1020.07 1020.35 1020.39 1020.19 1020.27 1020.23 1020.75 1021.03 1020.87 1020.43 1020.67 1021.11
1016.19 1016.39 1016.55 1016.79 1016.99 1017.31 1017.63 1018.03 1018.27 1018.35 1018.51 1018.63 1018.75 1018.87 1018.99 1019.23 1019.31 1019.35 1019.39 1019.43 1019.39 1019.39 1019.43 1019.51 1019.47 1019.51 1019.47 1019.55 1019.51 1019.67 1019.63 1019.67 1019.75 1019.99 1020.11 1020.15 1020.15 1020.15 1020.27 1020.47 1020.75 1020.91
1016.03 1016.23 1016.51 1016.75 1016.99 1017.31 1017.67 1017.91 1018.11 1018.35 1018.55 1018.75 1018.87 1018.87 1019.03 1019.23 1019.39 1019.43 1019.51 1019.55 1019.51 1019.55 1019.51 1019.47 1019.59 1019.55 1019.51 1019.55 1019.59 1019.71 1019.75 1019.75 1019.79 1019.91 1019.99 1020.11 1020.15 1020.19 1020.23 1020.43 1020.63 1020.83
1016.11 1016.31 1016.63 1016.79 1016.99 1017.23 1017.51 1017.75 1017.99 1018.23 1018.47 1018.63 1018.75 1018.91 1019.03 1019.23 1019.31 1019.39 1019.43 1019.47 1019.55 1019.59 1019.55 1019.55 1019.59 1019.67 1019.59 1019.63 1019.71 1019.79 1019.79 1019.79 1019.83 1019.91 1019.99 1020.03 1020.15 1020.35 1020.31 1020.43 1020.47 1020.59
1016.11 1016.31 1016.59 1016.79 1017.11 1017.31 1017.51 1017.75 1018.07 1018.27 1018.43 1018.63 1018.87 1018.99 1019.03 1019.11 1019.27 1019.47 1019.51 1019.51 1019.55 1019.59 1019.67 1019.63 1019.63 1019.63 1019.71 1019.71 1019.79 1019.91 1019.99 1019.91 1019.95 1019.91 1019.95 1020.07 1020.23 1020.43 1020.43 1020.39 1020.43 1020.51
1016.03 1016.31 1016.59 1016.91 1017.23 1017.43 1017.63 1017.71 1017.99 1018.23 1018.35 1018.67 1018.83 1018.99 1019.03 1019.07 1019.23 1019.43 1019.47 1019.51 1019.67 1019.71 1019.71 1019.75 1019.79 1019.91 1019.87 1019.91 1019.91 1019.91 1019.95 1020.03 1019.99 1019.91 1020.03 1020.23 1020.35 1020.39 1020.35 1020.43 1020.67 1020.71
1016.07 1016.27 1016.63 1016.91 1017.27 1017.43 1017.63 1017.79 1017.95 1018.19 1018.31 1018.55 1018.71 1018.83 1019.07 1019.15 1019.23 1019.31 1019.47 1019.59 1019.83 1019.91 1019.91 1019.95 1019.99 1020.07 1019.91 1019.75 1019.79 1019.83 1019.95 1020.03 1020.03 1020.03 1020.07 1020.07 1020.11 1020.11 1020.15 1020.39 1020.63 1020.83
1016.31 1016.43 1016.67 1016.99 1017.23 1017.39 1017.67 1017.83 1018.03 1018.19 1018.35 1018.51 1018.71 1018.91 1019.03 1019.23 1019.31 1019.31 1019.47 1019.51 1019.83 1019.79 1019.83 1019.95 1020.03 1019.99 1020.07 1020.07 1020.07 1019.91 1019.87 1020.03 1019.99 1020.03 1020.07 1019.99 1020.07 1020.19 1020.31 1020.35 1020.67 1020.83
1016.51 1016.63 1016.87 1017.11 1017.35 1017.59 1017.79 1017.91 1018.07 1018.23 1018.43 1018.51 1018.63 1018.95 1019.11 1019.19 1019.31 1019.35 1019.35 1019.47 1019.59 1019.59 1019.63 1019.79 1019.83 1020.03 1019.99 1020.07 1020.19 1020.27 1020.15 1020.11 1020.11 1020.19 1020.19 1020.23 1020.35 1020.31 1020.35 1020.51 1020.63 1020.83
1016.67 1016.91 1017.15 1017.43 1017.63 1017.83 1017.91 1017.99 1018.15 1018.31 1018.39 1018.59 1018.67 1018.95 1019.15 1019.23 1019.35 1019.47 1019.43 1019.39 1019.43 1019.63 1019.79 1019.91 1019.95 1019.95 1020.11 1020.23 1020.23 1020.23 1020.31 1020.39 1020.47 1020.47 1020.51 1020.51 1020.47 1020.51 1020.51 1020.59 1020.55 1020.67
1017.11 1017.19 1017.35 1017.59 1017.79 1017.99 1018.11 1018.23 1018.31 1018.39 1018.43 1018.59 1018.75 1019.03 1019.11 1019.19 1019.39 1019.55 1019.63 1019.55 1019.67 1019.79 1019.87 1020.03 1020.19 1020.23 1020.19 1020.27 1020.23 1020.35 1020.43 1020.55 1020.51 1020.59 1020.59 1020.67 1020.71 1020.63 1020.67 1020.67 1020.71 1020.71
1017.71 1017.59 1017.63 1017.83 1017.99 1018.19 1018.35 1018.55 1018.67 1018.71 1018.71 1018.83 1018.95 1019.07 1019.11 1019.11 1019.27 1019.43 1019.67 1019.71 1019.83 1019.91 1020.07 1020.23 1020.43 1020.67 1020.99 1021.15 1020.59 1020.39 1020.47 1020.59 1020.63 1020.59 1020.63 1020.67 1020.75 1020.71 1020.75 1020.75 1020.71 1020.71
1017.71 1017.79 1017.91 1018.11 1018.31 1018.55 1018.79 1018.99 1019.11 1019.07 1019.07 1019.15 1019.19 1019.23 1019.31 1019.31 1019.43 1019.55 1019.63 1019.75 1019.91 1020.15 1020.51 1020.87 1021.27 1021.79 1022.71 1022.31 1021.83 1021.03 1020.43 1020.35 1020.63 1020.67 1020.63 1020.63 1020.67 1020.75 1020.87 1020.79 1020.75 1020.75
1017.91 1018.07 1018.31 1018.55 1018.75 1018.99 1019.23 1019.43 1019.75 1019.67 1019.59 1019.67 1019.75 1019.71 1019.59 1019.55 1019.59 1019.79 1019.83 1019.83 1020.07 1020.59 1021.07 1021.51 1022.11 1022.99 1023.31 1022.87 1022.23 1021.75 1021.19 1020.83 1020.79 1020.67 1020.63 1020.59 1020.71 1020.83 1020.87 1020.91 1020.91 1020.79
1018.23 1018.39 1018.63 1018.91 1019.11 1019.43 1019.67 1019.83 1019.95 1019.87 1019.95 1020.19 1020.31 1020.35 1020.07 1019.91 1020.03 1020.11 1020.23 1020.47 1020.75 1021.07 1021.51 1022.03 1022.83 1023.83 1023.55 1023.23 1022.83 1022.31 1021.83 1021.23 1020.83 1020.83 1020.91 1020.75 1020.71 1020.67 1020.55 1020.63 1020.79 1020.95
1018.79 1019.11 1019.27 1019.39 1019.67 1019.87 1020.03 1020.03 1020.11 1020.11 1020.23 1020.47 1020.71 1020.79 1020.51 1020.47 1020.59 1020.71 1020.91 1021.03 1021.27 1021.59 1021.99 1022.47 1023.03 1023.95 1023.63 1023.43 1023.15 1022.83 1022.39 1021.83 1020.71 1020.79 1020.75 1020.83 1020.95 1020.95 1020.91 1020.91 1020.95 1021.11
1019.23 1019.67 1019.91 1020.15 1020.43 1020.31 1020.07 1020.23 1020.39 1020.55 1020.55 1020.59 1020.59 1020.67 1020.79 1020.91 1021.07 1021.23 1021.39 1021.59 1021.87 1022.19 1022.63 1023.19 1023.63 1024.31 1024.03 1023.51 1023.11 1022.75 1022.35 1021.91 1020.91 1021.11 1020.95 1020.99 1021.07 1021.07 1021.19 1021.19 1021.27 1021.23
1019.83 1020.03 1020.11 1020.35 1020.47 1020.51 1020.47 1020.63 1020.83 1020.83 1020.67 1020.71 1020.83 1020.91 1021.07 1021.23 1021.31 1021.51 1021.71 1021.91 1022.15 1022.43 1022.87 1023.47 1024.35 1024.67 1024.19 1023.75 1023.23 1022.79 1022.31 1021.83 1021.27 1021.27 1021.15 1021.27 1021.39 1021.43 1021.47 1021.55 1021.47 1021.55
1020.43 1020.39 1020.19 1020.47 1020.63 1020.75 1020.87 1021.07 1021.07 1021.03 1021.07 1021.19 1021.19 1021.31 1021.51 1021.63 1021.71 1021.71 1021.91 1022.15 1022.31 1022.51 1022.83 1023.39 1024.23 1024.71 1024.43 1024.03 1023.59 1022.95 1022.35 1021.55 1021.47 1021.39 1021.47 1021.43 1021.51 1021.59 1021.47 1021.47 1021.51 1021.59
1021.03 1020.95 1020.99 1021.11 1021.19 1021.19 1021.27 1021.31 1021.31 1021.35 1021.39 1021.43 1021.59 1021.91 1022.27 1022.35 1022.31 1022.27 1022.31 1022.43 1022.63 1022.71 1022.87 1023.35 1023.99 1024.71 1024.63 1024.39 1023.95 1023.47 1022.51 1021.75 1021.71 1021.47 1021.67 1021.75 1021.75 1021.79 1021.55 1021.63 1021.79 1022.03
1021.55 1021.59 1021.75 1021.75 1021.79 1021.95 1022.11 1022.11 1021.95 1021.87 1021.99 1021.95 1021.99 1022.39 1022.79 1023.03 1022.91 1022.83 1022.91 1023.03 1023.11 1023.31 1023.31 1023.31 1023.99 1024.67 1024.63 1024.55 1024.23 1023.87 1023.27 1022.23 1021.83 1021.71 1021.91 1021.91 1021.75 1021.87 1021.71 1021.67 1022.23 1022.67
1022.11 1022.23 1022.31 1022.39 1022.43 1022.51 1022.55 1022.75 1022.99 1023.15 1023.15 1022.91 1022.91 1023.07 1023.35 1023.39 1023.43 1023.39 1023.55 1023.59 1023.63 1023.79 1023.99 1023.47 1023.63 1024.31 1024.75 1024.75 1024.51 1024.23 1023.71 1022.63 1022.15 1021.91 1021.99 1022.07 1021.99 1021.79 1021.87 1021.71 1021.99 1022.59
1022.79 1022.95 1023.11 1022.95 1022.83 1022.79 1023.03 1023.39 1023.55 1023.67 1023.47 1023.55 1023.75 1023.79 1023.79 1023.83 1023.91 1024.03 1024.03 1024.19 1024.23 1024.23 1024.19 1023.91 1023.75 1023.95 1024.79 1025.07 1024.95 1024.63 1024.43 1023.67 1022.59 1022.47 1022.39 1022.47 1022.35 1022.19 1022.07 1021.83 1021.87 1022.19
Thickness
5638 5637 5636 5634 5635 5634 5633 5632 5631 5630 5629 5630 5630 5629 5629 5628 5627 5628 5627 5627 5627 5627 5627 5628 5627 5627 5627 5627 5626 5626 5626 5624 5624 5625 5623 5621 5620 5619 5617 5615 5611 5611
5636 5635 5634 5633 5632 5631 5630 5629 5628 5627 5626 5626 5627 5627 5626 5624 5625 5625 5625 5626 5626 5626 5626 5626 5626 5626 5626 5626 5626 5625 5625 5623 5623 5624 5623 5621 5620 5618 5617 5615 5613 5609
5634 5633 5632 5631 5629 5628 5627 5626 5624 5624 5623 5623 5623 5623 5622 5622 5621 5622 5623 5624 5625 5625 5625 5625 5625 5625 5625 5625 5625 5625 5624 5621 5622 5624 5624 5622 5620 5618 5618 5619 5619 5615
5633 5632 5631 5629 5628 5626 5625 5623 5621 5621 5620 5619 5619 5620 5619 5619 5619 5619 5620 5621 5622 5623 5623 5623 5623 5623 5624 5624 5624 5624 5624 5622 5623 5623 5624 5623 5621 5619 5620 5622 5622 5620
5632 5632 5630 5629 5627 5626 5623 5621 5619 5618 5617 5617 5617 5617 5617 5617 5617 5617 5617 5618 5619 5620 5620 5620 5621 5622 5622 5622 5623 5623 5623 5624 5624 5624 5623 5623 5622 5622 5622 5622 5621 5619
5631 5631 5629 5628 5627 5625 5622 5620 5618 5617 5616 5615 5615 5615 5615 5615 5615 5615 5615 5615 5617 5617 5618 5619 5619 5620 5620 5621 5621 5621 5622 5622 5623 5622 5622 5622 5622 5622 5622 5621 5620 5618
5629 5628 5627 5626 5625 5623 5621 5619 5618 5617 5615 5614 5614 5613 5613 5613 5613 5614 5614 5614 5615 5615 5616 5617 5617 5618 5619 5619 5619 5619 5619 5620 5620 5620 5621 5620 5619 5619 5619 5619 5619 5618
5626 5625 5624 5622 5621 5620 5619 5618 5616 5615 5614 5613 5612 5612 5612 5612 5612 5612 5612 5612 5613 5613 5614 5615 5615 5616 5616 5617 5616 5616 5617 5618 5618 5619 5619 5619 5618 5617 5617 5617 5618 5617
5624 5622 5620 5618 5617 5616 5616 5616 5615 5614 5613 5612 5611 5611 5611 5611 5611 5610 5610 5610 5610 5610 5611 5611 5611 5612 5613 5614 5614 5615 5615 5615 5616 5617 5617 5616 5615 5615 5616 5615 5614 5614
5621 5619 5618 5616 5614 5614 5613 5614 5613 5612 5612 5611 5611 5610 5609 5609 5609 5609 5608 5608 5607 5606 5607 5608 5608 5608 5609 5611 5612 5612 5613 5613 5613 5615 5615 5615 5615 5615 5615 5614 5611 5611
5617 5616 5615 5613 5612 5612 5611 5611 5610 5610 5609 5609 5609 5608 5608 5607 5607 5607 5607 5606 5604 5605 5605 5605 5605 5606 5606 5607 5608 5609 5610 5611 5611 5612 5612 5612 5613 5612 5612 5612 5609 5608
5613 5612 5612 5610 5608 5608 5608 5608 5608 5607 5607 5607 5607 5606 5605 5605 5605 5605 5605 5605 5604 5604 5604 5603 5603 5603 5603 5604 5604 5605 5606 5607 5608 5608 5609 5609 5609 5609 5609 5609 5607 5606
5608 5608 5607 5606 5605 5605 5605 5605 5605 5604 5604 5605 5604 5603 5603 5603 5602 5602 5602 5603 5602 5602 5601 5601 5601 5601 5601 5601 5601 5602 5603 5603 5604 5604 5605 5605 5605 5606 5606 5605 5605 5605
5602 5602 5603 5602 5602 5602 5601 5601 5601 5601 5601 5601 5601 5600 5600 5601 5600 5599 5599 5600 5599 5599 5598 5598 5598 5598 5598 5598 5599 5600 5599 5600 5600 5601 5601 5601 5601 5602 5602 5602 5603 5602
5596 5597 5598 5597 5597 5598 5596 5596 5596 5596 5597 5596 5596 5596 5597 5598 5598 5597 5597 5596 5596 5595 5594 5593 5593 5591 5590 5590 5593 5596 5597 5596 5597 5597 5598 5598 5598 5598 5598 5599 5600 5599
5591 5592 5593 5592 5592 5592 5590 5590 5590 5590 5591 5591 5590 5591 5592 5593 5594 5594 5594 5594 5593 5592 5589 5586 5585 5582 5579 5580 5584 5589 5593 5594 5594 5594 5595 5594 5594 5595 5595 5595 5597 5597
5587 5587 5587 5586 5586 5586 5584 5583 5582 5582 5583 5583 5584 5585 5587 5589 5589 5589 5590 5590 5588 5586 5582 5580 5576 5573 5572 5575 5578 5581 5586 5589 5590 5590 5591 5592 5592 5591 5592 5592 5593 5593
5581 5581 5581 5580 5580 5579 5577 5577 5577 5577 5577 5577 5577 5577 5580 5583 5583 5583 5583 5582 5581 5579 5576 5573 5569 5566 5568 5570 5572 5575 5578 5583 5586 5587 5587 5588 5588 5589 5590 5590 5589 5589
5575 5574 5574 5574 5573 5572 5571 5572 5572 5573 5572 5572 5571 5572 5574 5576 5576 5576 5575 5574 5574 5572 5569 5567 5563 5561 5563 5565 5567 5569 5571 5577 5582 5584 5583 5584 5584 5584 5585 5585 5584 5584
5569 5567 5567 5566 5565 5566 5567 5567 5567 5568 5568 5568 5568 5568 5569 5570 5569 5569 5568 5567 5567 5564 5561 5560 5556 5555 5557 5560 5563 5565 5567 5572 5577 5578 5579 5579 5579 5578 5579 5578 5579 5579
5561 5561 5562 5562 5560 5560 5562 5562 5561 5562 5564 5564 5564 5565 5564 5564 5564 5564 5562 5561 5560 5558 5556 5554 5550 5549 5552 5555 5558 5561 5564 5568 5572 5573 5573 5573 5573 5573 5573 5573 5573 5574
5553 5556 5557 5556 5556 5556 5555 5555 5555 5557 5558 5559 5559 5558 5558 5558 5558 5558 5558 5556 5555 5555 5553 5550 5546 5545 5547 5550 5552 5556 5560 5564 5567 5567 5568 5568 5567 5567 5568 5568 5568 5568
5546 5549 5549 5549 5549 5550 5549 5549 5550 5552 5553 5554 5554 5552 5550 5549 5550 5551 5552 5551 5550 5550 5549 5546 5542 5540 5541 5543 5546 5549 5555 5559 5561 5562 5562 5562 5561 5562 5563 5563 5562 5560
5540 5541 5540 5541 5542 5542 5541 5542 5543 5544 5545 5546 5546 5545 5543 5542 5542 5544 5544 5544 5544 5543 5543 5543 5539 5536 5537 5539 5540 5542 5547 5552 5556 5556 5556 5556 5556 5556 5557 5558 5555 5551
5533 5533 5532 5534 5535 5535 5535 5534 5534 5535 5536 5537 5538 5537 5535 5535 5535 5536 5536 5536 5536 5536 5536 5538 5537 5534 5532 5533 5535 5536 5539 5544 5549 5550 5550 5550 5550 5551 5551 5552 5550 5546
5524 5524 5525 5527 5528 5529 5529 5528 5527 5528 5529 5531 5530 5529 5529 5529 5528 5529 5529 5529 5529 5528 5528 5531 5532 5530 5527 5526 5528 5530 5532 5536 5541 5542 5542 5542 5543 5544 5544 5545 5546 5543